User: anonymous   Login
Location: Unspecified
(0.0000°N, 0.0000°E)
Time: 21:48:37
(UTC+00:00)
Language:

Vela 3B - Orbit

View from above orbital plane
View from above orbital plane
View from above satellite
View from above satellite

Ground track
Ground track

The orbit data is extracted from the following two-line orbital elements,

1 01459U 65058B   15113.41342243 -.00001159  00000-0  00000+0 0  9993
2 01459 003.5383 055.7151 4543621 286.9723 000.9806 00.21144443 39322
Epoch (UTC): 23 April 2015 09:55:19
Eccentricity: 0.4543621
inclination: 3.5383°
perigee height: 58560 km
apogee height: 166712 km
right ascension of ascending node: 55.7151°
argument of perigee: 286.9723°
revolutions per day: 0.21144443
mean anomaly at epoch: 0.9806°
orbit number at epoch: 3932

The dashed part of the orbit path shows where the satellite is in the earth's shadow,  

DLR